Hourly Data Report for May 27, 2012

All times are specified in Local Standard Time (LST). Add 1 hour to adjust for Daylight Saving Time where and when it is observed.

DEER LAKE A
NEWFOUNDLAND

49°12'33.000" N
57°23'40.000" W
21.90 m
8401502
71809
YDF

Download Data

Hourly Data (May 2012)
Hourly Data Report for May 27, 2012
Temp Definition
°C
Dew Point Temp Definition
°C
Rel Hum Definition
%
Wind Dir Definition
10's deg

Wind Spd Definition
km/h
Visibility Definition
km
Stn Press Definition
kPa
Hmdx Definition


Wind Chill Definition


Weather Definition


TIME
00:30 Legend Double Dagger 7.6 3.1 73 23 7 10.0 100.71     LegendNANA
01:30 Legend Double Dagger 8.0 1.0 61 28 14 10.0 100.82     LegendNANA
02:30 Legend Double Dagger 6.2 0.5 67 21 9 10.0 100.91     Mainly Clear
03:30 Legend Double Dagger 6.0 0.8 69 26 8 10.0 100.99     LegendNANA
04:30 Legend Double Dagger 5.5 0.9 72 29 8 10.0 101.07     LegendNANA
05:30 Legend Double Dagger 5.4 0.4 70 32 4 10.0 101.10     Mainly Clear
06:30 Legend Double Dagger 6.9 0.1 62 27 7 10.0 101.13     LegendNANA
07:30 Legend Double Dagger 7.9 -0.8 54 34 17 10.0 101.15     LegendNANA
08:30 Legend Double Dagger 9.1 0.6 55 32 14 10.0 101.17     Mainly Clear
09:30 Legend Double Dagger 8.3 -0.7 53 30 19 10.0 101.19     LegendNANA
10:30 Legend Double Dagger 9.9 -1.2 46 32 21 10.0 101.22     LegendNANA
11:30 Legend Double Dagger 10.2 -0.3 48 31 17 10.0 101.19     Mainly Clear
12:30 Legend Double Dagger 10.9 -1.2 43 29 11 10.0 101.18     LegendNANA
13:30 Legend Double Dagger 11.4 -1.0 42 31 18 10.0 101.17     LegendNANA
14:30 Legend Double Dagger 11.1 -1.3 42 30 23 10.0 101.19     Mainly Clear
15:30 Legend Double Dagger 10.6 -1.8 42 30 16 10.0 101.26     LegendNANA
16:30 Legend Double Dagger 10.3 -2.0 42 29 16 10.0 101.29     LegendNANA
17:30 Legend Double Dagger 9.1 -2.5 44 29 23 10.0 101.30     Mainly Clear
18:30 Legend Double Dagger 8.5 -2.2 47 31 13 10.0 101.30     LegendNANA
19:30 Legend Double Dagger 7.1 -2.6 50 30 12 10.0 101.33     LegendNANA
20:30 Legend Double Dagger 5.2 -1.9 60 26 7 10.0 101.38     Mainly Clear
21:30 Legend Double Dagger 4.6 -1.8 63 21 15 10.0 101.45     LegendNANA
22:30 Legend Double Dagger 2.9 -1.5 73 20 9 10.0 101.38     LegendNANA
23:30 Legend Double Dagger 4.0 -1.0 70 24 7 10.0 101.38     Mainly Clear

Notes on Data Quality.

Legend

  • E = Estimated
  • M = Missing
  • NA = Not Available
  • ‡ = Partner data that is not subject to review by the National Climate Archives
Date modified: